[[{"header":{"parameterUnit":"m.s-1","parameterCategory":1,"la1":30.2991,"la2":30.254,"lo1":-89.0895,"lo2":-89.0444,"dy":0.0017,"dx":0.0017,"nx":28,"ny":28,"refTime":"2023-07-26T09:00:00:Z","depth":0,"parameterNumber":2,"parameterNumberName":"U-component_of_WINDS"},"data":[0,0,0,0,0,0,0,0,0,0,0,0,0,0,0,0,0,0,0,0,0,0,0,0,0,0,0,0,0,0,0,0,0,0,0,0,0,0,0,0,0,0,0,0,0,0,0,0,0,0,0,0,0,0,0,0,0,0,-0.6288,-0.6287,0,-0.6263,-0.6262,-0.6262,-0.6249,-0.6249,-0.6249,-0.6249,-0.6224,-0.6224,-0.6223,0,0,0,0,0,0,0,0,0,0,0,0,0,-0.6325,-0.6324,-0.6288,-0.6287,-0.6287,-0.6263,-0.6262,-0.6262,-0.6249,-0.6249,-0.6249,-0.6249,-0.6225,-0.6224,-0.6223,0,0,0,0,0,0,0,0,0,0,0,0,0,-0.6305,-0.6324,-0.6288,-0.6278,-0.6277,-0.6263,-0.6262,-0.6262,-0.6249,-0.6249,-0.6249,-0.6249,-0.6225,-0.6224,-0.6223,-0.6217,0,0,-0.622,-0.6219,0,0,0,0,0,0,0,0,-0.6307,-0.6304,-0.6279,-0.6278,-0.6277,-0.6259,-0.6266,-0.6247,-0.6249,-0.626,-0.6249,-0.6249,-0.6236,-0.6234,-0.6229,-0.6216,-0.6215,-0.622,-0.6219,-0.6219,-0.6219,0,0,0,0,0,0,0,-0.6308,-0.6305,-0.6278,-0.6279,-0.6278,-0.6275,-0.6272,-0.6263,-0.6248,-0.6259,-0.6258,-0.6255,-0.6235,-0.623,-0.6229,-0.6215,-0.622,-0.6219,-0.6218,-0.6218,-0.6197,-0.6197,0,0,0,0,0,0,-0.6311,-0.6306,-0.6279,-0.6277,-0.6292,-0.6274,-0.6271,-0.6265,-0.6248,-0.6246,-0.6255,-0.6255,-0.6232,-0.623,-0.6228,-0.6221,-0.6219,-0.6218,-0.6217,-0.6197,-0.6197,-0.6197,0,0,0,0,0,0,-0.6312,-0.6308,-0.628,-0.6291,-0.6287,-0.6274,-0.6267,-0.6264,-0.626,-0.6246,-0.6243,-0.6253,-0.6232,-0.6229,-0.622,-0.622,-0.6217,-0.6217,-0.6197,-0.6197,-0.6197,-0.6206,0,0,0,0,0,0,-0.6313,-0.6309,-0.6306,-0.6291,-0.6287,-0.6272,-0.6267,-0.6264,-0.6258,-0.6257,-0.6243,-0.624,-0.6232,-0.6222,-0.6219,-0.6218,-0.6216,-0.6197,-0.6197,-0.6197,-0.6206,-0.6206,-0.6207,0,0,0,0,0,-0.6314,-0.631,-0.6306,-0.6303,-0.6283,-0.6272,-0.6269,-0.626,-0.6258,-0.6255,-0.6247,-0.6241,-0.622,-0.6221,-0.6218,-0.6217,-0.6196,-0.6197,-0.6197,-0.6205,-0.6206,-0.6207,0,0,0,0,0,0,-0.6324,-0.6307,-0.6303,-0.6294,-0.6284,-0.627,-0.6266,-0.6261,-0.6252,-0.6251,-0.624,-0.6237,-0.6229,-0.6222,-0.6223,-0.6211,-0.6208,-0.6207,-0.6215,-0.6216,-0.6217,-0.6218,-0.6215,0,0,0,0,0,-0.6326,-0.6318,-0.6303,-0.6296,-0.6292,-0.628,-0.6275,-0.6268,-0.6258,-0.6254,-0.6244,-0.6235,-0.6226,-0.6221,-0.6212,-0.6205,-0.6202,-0.6203,-0.6203,-0.6204,-0.6203,-0.6199,-0.62,-0.6197,-0.6197,-0.6197,0,0,-0.6328,-0.6318,-0.6313,-0.6298,-0.629,-0.6282,-0.6277,-0.6269,-0.6263,-0.6253,-0.6243,-0.6236,-0.6225,-0.6217,-0.6213,-0.6211,-0.6204,-0.6204,-0.6204,-0.6204,-0.62,-0.62,-0.62,-0.6197,-0.6197,-0.6197,0,0,-0.6328,-0.632,-0.6313,-0.6305,-0.6293,-0.6286,-0.6284,-0.6271,-0.6265,-0.6256,-0.6249,-0.6242,-0.6227,-0.622,-0.6214,-0.6213,-0.6208,-0.6211,-0.6214,-0.621,-0.621,-0.6211,-0.621,-0.621,-0.6211,-0.6211,-0.6211,0,-0.6333,-0.632,-0.631,-0.6303,-0.6297,-0.6288,-0.6281,-0.6274,-0.626,-0.6257,-0.6255,-0.6237,-0.6229,-0.6219,-0.6219,-0.6214,-0.6213,-0.6212,-0.6211,-0.6211,-0.6211,-0.6211,-0.6211,-0.6211,-0.6211,-0.6211,-0.6211,0,-0.6326,-0.6318,-0.6315,-0.6301,-0.6295,-0.6288,-0.6278,-0.6272,-0.6267,-0.626,-0.6251,-0.6241,-0.623,-0.6228,-0.6222,-0.6218,-0.6217,-0.6213,-0.621,-0.6212,-0.6212,-0.6211,-0.6212,-0.6211,-0.6211,-0.6211,0,0,-0.6331,-0.6314,-0.6312,-0.6306,-0.6293,-0.6287,-0.628,-0.627,-0.6266,-0.6257,-0.6251,-0.624,-0.6237,-0.623,-0.6224,-0.6221,-0.6221,-0.6218,-0.6217,-0.6219,-0.6216,-0.6218,-0.6218,-0.6218,-0.6218,-0.6218,-0.6217,0,-0.633,-0.6316,-0.6308,-0.6299,-0.6291,-0.6283,-0.6277,-0.6269,-0.6262,-0.6255,-0.6248,-0.624,-0.6237,-0.6233,-0.623,-0.6222,-0.622,-0.6222,-0.6212,-0.6212,-0.6215,-0.6218,-0.622,-0.622,-0.6217,-0.6216,-0.6216,0,-0.6325,-0.6317,-0.6307,-0.6295,-0.6291,-0.6286,-0.6277,-0.627,-0.6261,-0.6256,-0.625,-0.6244,-0.6237,-0.6235,-0.6225,-0.6227,-0.6223,-0.6218,-0.6218,-0.6216,-0.6214,-0.6216,-0.622,-0.622,-0.6216,-0.6216,-0.6216,0,-0.633,-0.6316,-0.6308,-0.6304,-0.629,-0.6286,-0.6281,-0.6271,-0.6266,-0.6258,-0.6254,-0.6246,-0.6241,-0.6235,-0.6227,-0.6226,-0.6218,-0.6215,-0.6214,-0.6215,-0.6213,-0.6213,-0.6215,-0.6211,-0.6211,-0.6211,-0.6211,0,-0.6329,-0.6323,-0.631,-0.6305,-0.6299,-0.629,-0.6284,-0.6277,-0.6269,-0.6263,-0.6256,-0.6251,-0.6241,-0.6234,-0.6228,-0.6222,-0.622,-0.6216,-0.6214,-0.6216,-0.6217,-0.6213,-0.6213,-0.6211,-0.6211,-0.6211,-0.6211,0,-0.6333,-0.6324,-0.6315,-0.6303,-0.63,-0.6295,-0.6285,-0.6281,-0.6274,-0.6267,-0.6265,-0.6254,-0.6247,-0.6238,-0.6228,-0.6224,-0.6218,-0.6215,-0.6221,-0.622,-0.6219,-0.6219,-0.6219,-0.6218,-0.6215,-0.6215,-0.6215,0,-0.6332,-0.6327,-0.6315,-0.631,-0.6305,-0.6298,-0.6292,-0.6284,-0.6279,-0.6268,-0.6265,-0.6257,-0.625,-0.6238,-0.623,-0.6222,-0.622,-0.622,-0.6218,-0.6221,-0.622,-0.622,-0.6219,-0.622,-0.622,-0.6221,-0.6221,0,-0.6332,-0.6328,-0.6321,-0.6312,-0.6306,-0.6299,-0.6291,-0.6288,-0.6278,-0.6273,-0.6265,-0.626,-0.6249,-0.6242,-0.6233,-0.6227,-0.6222,-0.6221,-0.6221,-0.6223,-0.6226,-0.6224,-0.6222,-0.6221,-0.6221,-0.6221,-0.6221,-0.6221,-0.6334,-0.6329,-0.632,-0.6312,-0.6306,-0.6299,-0.6294,-0.6288,-0.6281,-0.6272,-0.6267,-0.6259,-0.6251,-0.6239,-0.6234,-0.6228,-0.6226,-0.6226,-0.6225,-0.6225,-0.6226,-0.6227,-0.6227,-0.6227,-0.6227,-0.6226,-0.6226,0,-0.6333,-0.6327,-0.632,-0.631,-0.6304,-0.63,-0.6292,-0.6288,-0.6281,-0.6274,-0.6267,-0.6258,-0.6251,-0.6243,-0.6235,-0.6232,-0.623,-0.623,-0.623,-0.6229,-0.6228,-0.6229,-0.6232,-0.6232,-0.6232,-0.6232,-0.6232,-0.6232,-0.6332,-0.6325,-0.632,-0.631,-0.6304,-0.6296,-0.6292,-0.6286,-0.628,-0.6271,-0.6265,-0.626,-0.6252,-0.6244,-0.6238,-0.6235,-0.6233,-0.6234,-0.6231,-0.623,-0.6229,-0.6229,-0.623,-0.6234,-0.6234,-0.6233,-0.6233,-0.6233]},{"header":{"parameterUnit":"m.s-1","parameterCategory":1,"la1":30.2991,"la2":30.254,"lo1":-89.0895,"lo2":-89.0444,"dy":0.0017,"dx":0.0017,"nx":28,"ny":28,"refTime":"2023-07-26T09:00:00:Z","depth":0,"parameterNumber":3,"parameterNumberName":"V-component_of_WINDS"},"data":[0,0,0,0,0,0,0,0,0,0,0,0,0,0,0,0,0,0,0,0,0,0,0,0,0,0,0,0,0,0,0,0,0,0,0,0,0,0,0,0,0,0,0,0,0,0,0,0,0,0,0,0,0,0,0,0,0,0,3.3958,3.3957,0,3.3879,3.3878,3.3877,3.3829,3.3828,3.3828,3.3828,3.3741,3.3738,3.3736,0,0,0,0,0,0,0,0,0,0,0,0,0,3.4062,3.406,3.3958,3.3957,3.3956,3.3879,3.3878,3.3877,3.3829,3.3828,3.3828,3.3828,3.3741,3.3739,3.3736,0,0,0,0,0,0,0,0,0,0,0,0,0,3.4003,3.406,3.3958,3.3923,3.3919,3.3879,3.3878,3.3876,3.3829,3.3828,3.3828,3.3828,3.3742,3.3739,3.3736,3.3723,0,0,3.3726,3.3725,0,0,0,0,0,0,0,0,3.4006,3.3999,3.3929,3.3925,3.3921,3.3863,3.3882,3.3825,3.3829,3.3863,3.3828,3.3828,3.3781,3.3775,3.376,3.3719,3.3715,3.3726,3.3724,3.3722,3.3722,0,0,0,0,0,0,0,3.4011,3.4002,3.3926,3.3928,3.3923,3.3909,3.39,3.3871,3.3825,3.386,3.3856,3.3848,3.3779,3.3764,3.3758,3.3714,3.3726,3.3723,3.3721,3.372,3.3656,3.3657,0,0,0,0,0,0,3.4021,3.4006,3.3929,3.3924,3.3964,3.3908,3.3898,3.3882,3.3825,3.3816,3.3848,3.3846,3.3769,3.3762,3.3755,3.3735,3.3723,3.372,3.3718,3.3656,3.3656,3.3657,0,0,0,0,0,0,3.4024,3.4015,3.3932,3.3964,3.3952,3.3906,3.3889,3.3881,3.3865,3.3816,3.3807,3.3842,3.3769,3.3759,3.3731,3.3732,3.3718,3.3715,3.3656,3.3656,3.3656,3.3697,0,0,0,0,0,0,3.4027,3.4016,3.4012,3.3964,3.3951,3.3912,3.3889,3.3879,3.3861,3.3857,3.3807,3.3799,3.3768,3.3736,3.3728,3.3727,3.3713,3.3656,3.3656,3.3656,3.3695,3.3699,3.3702,0,0,0,0,0,3.4031,3.4025,3.4012,3.4003,3.3945,3.3912,3.3904,3.387,3.3861,3.3856,3.3824,3.38,3.3733,3.3734,3.3724,3.3722,3.3655,3.3656,3.3656,3.3694,3.3698,3.3701,0,0,0,0,0,0,3.4071,3.4018,3.4003,3.3982,3.3952,3.3904,3.3896,3.3876,3.3846,3.3843,3.3801,3.379,3.3766,3.3741,3.3743,3.3706,3.3691,3.369,3.3723,3.3727,3.373,3.3736,3.371,0,0,0,0,0,3.4079,3.4058,3.4012,3.3998,3.3984,3.3943,3.3927,3.3904,3.387,3.3856,3.3823,3.3789,3.376,3.3742,3.3713,3.3692,3.368,3.3685,3.3688,3.3691,3.369,3.3676,3.3678,3.3658,3.3658,3.3658,0,0,3.4092,3.406,3.4049,3.4005,3.3979,3.3957,3.3932,3.391,3.3893,3.3852,3.3825,3.3799,3.3758,3.3734,3.3721,3.3712,3.3693,3.3692,3.3694,3.3692,3.3677,3.3679,3.3681,3.3659,3.3659,3.3658,0,0,3.4105,3.408,3.4066,3.4041,3.4002,3.3975,3.3972,3.3927,3.3909,3.3881,3.385,3.3828,3.3779,3.3752,3.3731,3.3735,3.3712,3.3726,3.3742,3.3729,3.3731,3.3732,3.3733,3.3733,3.3726,3.3726,3.3726,0,3.4126,3.4094,3.406,3.404,3.4021,3.3986,3.397,3.3947,3.39,3.3887,3.3878,3.3817,3.3787,3.3755,3.3757,3.3741,3.3735,3.3732,3.3734,3.3734,3.3735,3.3735,3.3736,3.3728,3.3728,3.3727,3.3727,0,3.4121,3.4099,3.4092,3.405,3.403,3.4012,3.3974,3.3958,3.3936,3.3909,3.388,3.3844,3.3807,3.3797,3.3775,3.3762,3.3758,3.3742,3.3726,3.374,3.3739,3.3739,3.3731,3.373,3.3729,3.3729,0,0,3.4157,3.4098,3.4096,3.4077,3.4032,3.4014,3.3993,3.3959,3.3946,3.3914,3.3895,3.3856,3.3841,3.3818,3.3792,3.3781,3.3786,3.3766,3.3764,3.3771,3.3768,3.3781,3.3781,3.377,3.377,3.377,3.3772,0,3.4164,3.4129,3.4098,3.4073,3.4051,3.4018,3.4,3.397,3.3944,3.3921,3.3891,3.3864,3.3847,3.3833,3.382,3.3788,3.3784,3.3787,3.3751,3.375,3.3762,3.3781,3.3793,3.3797,3.3771,3.3771,3.3771,0,3.4166,3.4139,3.4113,3.4071,3.4061,3.4046,3.4012,3.399,3.3955,3.3937,3.3912,3.3885,3.3861,3.3848,3.3813,3.3815,3.3798,3.378,3.3779,3.3774,3.3761,3.3776,3.3797,3.3797,3.377,3.377,3.377,0,3.4195,3.4152,3.413,3.4115,3.4065,3.4055,3.4034,3.3998,3.398,3.3949,3.3936,3.3903,3.3884,3.3858,3.3822,3.3817,3.379,3.3775,3.3773,3.3774,3.3769,3.377,3.3787,3.3759,3.3759,3.3759,3.3759,0,3.4205,3.419,3.4143,3.413,3.4111,3.4075,3.4058,3.4033,3.4002,3.3981,3.3949,3.3931,3.3886,3.3861,3.3833,3.3807,3.3799,3.3782,3.3775,3.3785,3.3787,3.3773,3.3772,3.3759,3.3759,3.3759,3.3759,0,3.4234,3.4202,3.4176,3.4132,3.4121,3.4109,3.407,3.4055,3.4028,3.4003,3.3995,3.3952,3.3922,3.3884,3.384,3.3821,3.3799,3.3788,3.3811,3.3807,3.3808,3.3808,3.3816,3.3815,3.3789,3.3789,3.3789,0,3.4243,3.4231,3.4186,3.4172,3.4152,3.4128,3.411,3.4073,3.4055,3.4014,3.4003,3.3971,3.3943,3.3895,3.3859,3.3825,3.3813,3.3818,3.3807,3.3818,3.3812,3.3813,3.3811,3.3821,3.3821,3.3822,3.3822,0,3.4261,3.4246,3.4222,3.4192,3.4171,3.4145,3.4118,3.4107,3.4064,3.4045,3.4015,3.3993,3.395,3.3918,3.388,3.3855,3.3831,3.3826,3.3824,3.3833,3.3848,3.3839,3.3818,3.3825,3.3825,3.3825,3.3825,3.3825,3.4279,3.4267,3.4234,3.4208,3.4184,3.4159,3.4143,3.4115,3.409,3.4053,3.4033,3.4003,3.3966,3.3914,3.389,3.3864,3.3856,3.3853,3.3852,3.3851,3.3854,3.3853,3.3857,3.3857,3.3857,3.3857,3.3857,0,3.4296,3.4273,3.425,3.4213,3.4192,3.4174,3.4143,3.4126,3.4101,3.407,3.4044,3.4008,3.3977,3.3939,3.3904,3.3891,3.3879,3.3883,3.3883,3.3878,3.3864,3.387,3.3893,3.3893,3.3893,3.3893,3.3893,3.3893,3.4302,3.428,3.4261,3.4227,3.4204,3.4176,3.416,3.4136,3.4111,3.4074,3.4049,3.4025,3.399,3.3953,3.3923,3.3912,3.39,3.3908,3.3894,3.3882,3.3879,3.3876,3.388,3.3906,3.3906,3.3909,3.3909,3.3909]}]]